DECAYED

STARLINK-2152, 47740 (Decayed)

Orbit data source: Space-Track

STARLINK-2152, 47740 was a payload satellite owned by SpaceX/Seattle (US) in LEO that was launched on Thu, 04 Mar 2021 UTC via an FALCON 9 launch vehicle from the Air Force Eastern Test Range (AFETR). Payload-class satellites include a variety of spacecraft equipped with specific instruments for various scientific and technological missions. These include communications satellites like Starlink; space stations such as the ISS; scientific satellites like the Hubble; Earth observation satellites from companies like Planet Labs, Umbra, and HawkEye 360; GPS; miniature CubeSats for education and research; and military/defense satellites.

Not visible in the next 10 days
Identifier
47740, 2021-017U
Orbit
Decayed
Country
Flag of USUS
Related business
Manufacturer
SpaceX/Seattle
Mission
Decayed Commercial Communications
Bus & Motor
STARLINK, Unknown motor
Mass
260 kg wet, ~248 kg dry
Launch date (UTC)
2021-03-04 (5 years ago)
Launch vehicle
FALCON 9
Launch site
Air Force Eastern Test Range (AFETR)
Object type
Payload
Rocket body
Debris
Shape & HBR
Box + 1 Pan, 10.1 m
Radar Cross Section
13.562 m², Large (>1 m²)

Expand to show TLE details & history
Last TLE update: 2 years ago

TLE from 2 years ago
0 STARLINK-2152
1 47740U 21017U   25003.94327631  .07611731  12145-4  11569-2 0  9995
2 47740  53.0346 319.6418 0002228 179.3269 288.5130 16.33458941212611
Epoch: 2025-01-03T22:38Z
TLE epoch observation values (Epoch: 2025-01-03T22:38:19.073Z)
Latitude
49.67935°
Longitude
-5.58712°
Altitude
188.487 km
Speed
7.8 km/s
True Right ascension
05h 11m 10s
True Declination
49° 29' 41"
Sunlit
Object was in full shadow at epoch
Visualization orbit readout
Latitude
Unknown
Longitude
Unknown
Altitude
Unknown
Speed
Unknown
Apparent Right ascension
Unknown
Apparent Declination
Unknown
Sunlit
N/A
Visualization observer readout
Local Sidereal Time
08:57:19
Azimuth
Unknown
Elevation
Unknown
Doppler factor
Unknown
Orbital elements
Apogee altitude
185.011 km
Perigee altitude
182.087 km
Semi-major axis
6,561.686 km
Eccentricity
0.00022
Inclination
53.0346°
RAAN
319.6418°
Arg. of periapsis
179.3269°
True anomaly
288.48879°
Mean anomaly
288.513°
Eccentric anomaly
288.50089°
Mean motion
4.08338 °/min
Orbital period
88.16 mins
BSTAR
0.0011569
Loading maneuver chart data...
Computing Atmospheric mass density...

Documentation

Showing up to 5 results
|